Location: Dampvalley
(47.9094°N, 6.1967°E)
Time: 03:21:01
(UTC+00:00)

N. Korean satellite - Pass Details

Date: 23 September 2021
Orbit: 450 x 495 km, 97.3° (Epoch: 18 October)

Event Time Altitude Azimuth Distance (km) Brightness Sun altitude
Rises 04:25:46 0° 21° (NNE) 2,517 10.7 -10.4°
Reaches altitude 10° 04:27:57 10° 31° (NNE) 1,643 9.9 -10.1°
Maximum altitude 04:31:11 33° 97° (E) 815 8.5 -9.5°
Drops below altitude 10° 04:34:27 10° 164° (SSE) 1,654 9.4 -9.0°
Sets 04:36:39 0° 173° (S) 2,537 10.2 -8.6°
